www.pogodaiklimat.ru
ПОГОДА в Дойлестауне
Время
и дата
04:54 16.08
05:54 16.08
06:54 16.08
07:54 16.08
08:54 16.08
09:54 16.08
10:54 16.08
11:54 16.08
12:54 16.08
13:54 16.08
14:54 16.08
15:54 16.08
16:54 16.08
17:54 16.08
18:54 16.08
19:54 16.08
20:54 16.08
21:54 16.08
22:54 16.08
23:54 16.08
00:54 17.08
01:54 17.08
02:54 17.08
03:54 17.08
04:54 17.08
05:54 17.08
06:54 17.08
07:54 17.08
08:54 17.08
09:54 17.08
10:54 17.08
11:54 17.08
12:54 17.08
13:54 17.08
14:54 17.08
15:54 17.08
16:54 17.08
17:54 17.08
18:54 17.08
19:54 17.08
20:54 17.08
21:54 17.08
22:54 17.08
23:54 17.08
00:54 18.08
01:54 18.08
02:54 18.08
03:54 18.08
Ветер
(напр.,м/с)
Видим. Явления Облачность Т
(С)
Тd
(С)
f
(%)
Тe
(С)
Тes
(С)
Комфортность P
(гПа)
Po
(гПа)
Тmin
(С)
Tmax
(С)
R
(мм)
R24
(мм)
S
(см)
штиль 0 16 км ясно +15.6 +11.7 78 +15 +15 1015.6 1001.4
СВ 1 16 км ясно +16.1 +12.2 78 +16 +16 1015.9 1001.8
СВ 1 16 км ясно +18.9 +12.8 68 +20 +21 1016.3 1002.4 +15.0 +18.9
нст 1 16 км ясно +22.2 +15.0 64 +26 +28 душно 1016.4 1002.4
СВ 2
{4}
16 км ясно +24.4 +12.2 46 +26 +29 жарко 1016.0 1002.1
СВ 2 16 км ясно +24.4 +10.6 42 +26 +32 жарко 1015.9 1002.1
нст 1 16 км 2/2 1800 м +27.2 +11.1 37 +28 +39 жарко 1016.2 1002.1
СВ 2
{4}
16 км ясно +27.8 +10.0 33 +28 +39 жарко 1015.9 1002.1
СВ 2
{5}
16 км 2/2 1950 м +28.9 +8.9 29 +29 +38 жарко 1015.5 1001.4 +18.9 +28.9
нст 1
{3}
16 км 2/0 2100 м
[Ac]
+27.8 +10.0 33 +28 +43 жарко 1015.2 1001.1
нст 1 16 км 2/0 2100 м
[Ac]
+29.4 +10.0 30 +29 +41 жарко 1014.8 1000.8
нст 1 16 км 5/0 2100 м
[Ac]
+27.8 +11.1 35 +29 +34 жарко 1014.7 1000.8
нст 1 16 км ясно +27.2 +10.0 34 +28 +34 жарко 1014.9 1001.1
нст 1 16 км ясно +26.1 +10.6 38 +27 +30 жарко 1014.8 1000.8
штиль 0 16 км ясно +23.3 +11.1 46 +26 +26 жарко 1015.2 1001.1 +23.3 +29.4
штиль 0 16 км ясно +20.6 +12.2 59 +22 +22 комфорт 1015.1 1001.1
штиль 0 16 км ясно +20.0 +12.2 61 +22 +22 комфорт 1015.5 1001.4
штиль 0 16 км ясно +20.0 +12.8 63 +22 +22 комфорт 1015.6 1001.8
штиль 0 16 км ясно +18.9 +13.3 70 +20 +20 1015.9 1001.8
штиль 0 16 км 2/2 1800 м +17.2 +13.3 78 +17 +17 1016.0 1002.1
штиль 0 16 км 10/8 1950 м
[Ac]
+18.3 +13.9 76 +19 +19 1015.7 1001.8 +17.2 +23.3
штиль 0 16 км 10/8 1650 м
[Ac]
+18.3 +13.9 76 +19 +19 1015.9 1001.8
штиль 0 16 км 5/5 1650 м +17.8 +13.9 78 +18 +18 1015.6 1001.8
штиль 0 16 км 8/8 1500 м +17.8 +13.9 78 +18 +18 1015.9 1001.8
СВ 1 16 км ясно +16.7 +13.3 80 +17 +17 1016.1 1002.1
нст 1 16 км ясно +17.2 +13.9 81 +18 +18 1016.4 1002.4
штиль 0 16 км ясно +20.0 +14.4 70 +22 +23 комфорт 1016.6 1002.4 +16.1 +20.0
нст 1 16 км ясно +22.8 +15.0 61 +27 +29 душно 1016.7 1002.8
С 1 16 км ясно +24.4 +14.4 54 +27 +32 жарко 1016.7 1002.8
нст 1 16 км 8/0 2850 м
[Ac]
+25.6 +10.6 39 +27 +30 жарко 1016.4 1002.4
нст 1 16 км 8/2 1500 м
[Ac]
+26.7 +11.1 38 +28 +35 жарко 1016.1 1002.1
штиль 0 16 км 8/5 1800 м
[Ac]
+26.7 +10.6 36 +27 +35 жарко 1015.8 1001.8
СВ 1 16 км 10/0 3000 м
[Ac]
+26.7 +10.6 36 +27 +33 жарко 1015.3 1001.4 +20.0 +28.3
штиль 0 16 км 8/0 3000 м
[Ac]
+26.7 +10.6 36 +27 +37 жарко 1014.9 1000.8
штиль 0 16 км 8/2 1800 м
[Ac]
+26.7 +10.6 36 +27 +37 жарко 1014.2 1000.4
С 1 16 км 8/0 2850 м
[Ac]
+26.7 +10.6 36 +27 +32 жарко 1013.6 999.8
нст 1 16 км 10/8 1950 м
[Ac]
+28.3 +10.0 32 +29 +29 жарко 1013.6 999.8
штиль 0 16 км 8/8 1950 м +26.7 +11.1 38 +28 +28 жарко 1013.4 999.4
штиль 0 16 км 5/0 3600 м
[Ac]
+24.4 +10.6 42 +26 +26 жарко 1013.7 999.8 +24.4 +28.9
штиль 0 16 км 5/0 3600 м
[Ac]
+20.6 +11.7 57 +22 +22 комфорт 1014.0 1000.1
С 1 16 км 5/0 2700 м
[Ac]
+20.0 +11.1 57 +22 +22 комфорт 1014.5 1000.4
штиль 0 16 км 8/0 3300 м
[Ac]
+18.9 +11.7 63 +20 +20 1013.9 1000.1
штиль 0 16 км ясно +18.9 +11.7 63 +20 +20 1013.7 999.8
штиль 0 16 км ясно +17.8 +12.2 70 +18 +18 1013.4 999.4
штиль 0 16 км ясно +16.1 +12.2 78 +16 +16 1013.1 999.1 +16.1 +24.4
штиль 0 16 км ясно +16.1 +12.2 78 +16 +16 1013.0 999.1
штиль 0 16 км ясно +15.6 +12.2 80 +15 +15 1013.2 999.1
штиль 0 16 км ясно +15.6 +12.2 80 +15 +15 1013.3 999.1
Местоположение метеостанции Doylestown Airport: широта 40.3302 долгота -75.1229 высота над уровнем моря 120 м.
В архиве по умолчанию представлена погода в Дойлестауне за последние 1-2 суток. Обновление информации о фактической погоде в базе происходит ежечасно! Архивные данные за месяц целиком и за предыдущие месяцы Вы можете получить, выбрав интересующий диапазон дат из раскрывающегося списка и нажав кнопку "Ввод!".
Внимание! Архив погоды МЕТАР в базе сайта по станциям, не включенным в климатический монитор, хранится не более 60 дней. Нет смысла пытаться выбрать более раннюю дату.
*Определитесь, кто Вы:
Внимание! Время в таблицах - местное (без учета летнего времени). Для получения всемирного времени необходимо вычесть поправку, которая равна -5 ч.
Смотрите также архив погоды в соседних городах и на ближайших метеорологических станциях:
Партнеры нашего сайта:      
Пояснения к столбцам:
  • Ветер - указаны скорость ветра в м/с - средняя за 10 мин, порывы в срок и между сроками (в фигурных скобках) и направление, откуда дует ветер: С - северный,
  • СВ - северо-восточный, В - восточный, ЮВ - юго-восточный, Ю - южный, ЮЗ - юго-западный, З - западный, СЗ - северо-западный.
  • Видимость - горизонтальная дальность видимости в метрах или километрах. При видимости от 1 до 10 км при отсутствии осадков обычно наблюдается дымка, при ухудшении видимости до 1 км и менее - туман. В сухую погоду видимость может ухудшаться дымом, пылью или мглою.
  • Явления - указаны атмосферные явления, наблюдавшиеся в срок или в последний час перед сроком; фигурными скобками обозначены явления, наблюдавшиеся между сроками (за 1-3 часа до срока); квадратными скобками обозначены град или гололедные отложения с указанием их диаметра в мм.
  • Облачность - указаны через наклонную черту общая и нижняя облачность в баллах и высота нижней границы облаков в метрах; квадратными скобками обозначены формы облаков: Ci - перистые, Cs - перисто-слоистые, Cc - перисто-кучевые, Ac - высококучевые, As - высокослоистые, Sc - слоисто-кучевые, Ns - слоисто-дождевые, Cu - кучевые, Cb - кучево-дождевые. Подробнее классификацию облаков см. в Атласе облаков (PDF).
  • T - Температура воздуха - температура, измеренная на высоте 2 м над землей.
  • Td - Температура точки росы - температура, при понижении до которой содержащийся в воздухе водяной пар достигнет насыщения.
  • f - Относительная влажность воздуха - влажноcть воздуха, измеренная на высоте 2 м над землей.
  • Te - Эффективная температура - температура, которую ощущает одетый по сезону человек в тени. Характеристика душности погоды. При расчете учитывается влияние влажности воздуха и скорости ветра на теплоощущения человека.
  • Tes - Эффективная температура на солнце - температура, которую ощущает человек, с поправкой на солнечный нагрев. Характеристика знойности погоды. Зависит от высоты солнца над горизонтом, облачности и скорости ветра. Ночью, в пасмурную погоду, а также при ветре 12 м/с и более поправка равна нулю.
  • P - Атмосферное давление - приведенное к уровню моря атмосферное давление.
  • Po - Атмосферное давление - измеренное на уровне метеостанции атмосферное давление.
  • Tmin - Минимальная температура - минимум температуры воздуха на высоте 2 м над землей.
  • Tmax - Максимальная температура - максимум температуры воздуха на высоте 2 м над землей.
  • R - Количество осадков - Количество выпавших осадков за период времени, мм. При наведении курсора мыши на число - период времени, за который выпало указанное количество осадков.
  • R24 - Количество осадков - Количество выпавших осадков за 24 часа, мм.
  • S - Снежный покров - Высота снежного покрова, см. При наведении курсора мыши на число - состояние снежного покрова и степень покрытия местности в баллах.